www.pogodaiklimat.ru

Погода и климат >> Архив погоды >> Япония >> Мисима


ПОГОДА в Мисиме

  • Прогноз погоды в Мисиме
  • Монитор погоды в Мисиме

АРХИВ ПОГОДЫ в Мисиме

Время (UTC), дата Ветер
(напр.,м/с)
 
Видим.   Явления Облачность Т
(С)
Тd
(С)
f
(%)
Тe
(С)
Тes
(С)
Комфортность P
(гПа)
Po
(гПа)
Тmin
(С)
Tmax
(С)
R
(мм)
R24
(мм)
S
(см)
22 13.06 С 1 20 км н/о +20.7 +17.3 81 +26 +26 душно 1014.4 1011.8
23 13.06 В 3 20 км н/о +23.9 +16.2 62 +27 +27 жарко 1014.0 1011.5
00 14.06 В 4 20 км н/о +24.9 +16.1 58 +28 +28 жарко 1013.9 1011.4 +16.4
01 14.06 В 4 20 км н/о +25.4 +15.7 55 +29 +29 душно 1014.0 1011.5
02 14.06 В 4 20 км н/о +26.3 +15.4 51 +29 +29 жарко 1013.8 1011.3
03 14.06 В 5 20 км н/о +25.5 +16.9 59 +29 +29 душно 1013.2 1010.7
04 14.06 В 4 20 км н/о +25.9 +16.5 56 +29 +29 душно 1013.3 1010.8
05 14.06 В 5 20 км н/о +24.5 +16.2 60 +28 +28 душно 1012.7 1010.2
06 14.06 В 5 20 км н/о +24.0 +15.8 60 +27 +27 жарко 1012.7 1010.2
07 14.06 В 4 20 км н/о +23.5 +16.3 64 +27 +27 душно 1012.5 1010.0
08 14.06 В 3 20 км н/о +22.8 +16.4 67 +27 +27 душно 1012.2 1009.7
09 14.06 В 2 20 км н/о +22.2 +16.5 70 +26 +26 душно 1012.3 1009.8
10 14.06 В 2 20 км н/о +21.9 +16.6 72 +26 +26 душно 1012.5 1010.0
11 14.06 СВ 2 13 км слаб. дождь н/о +21.1 +17.3 79 +25 +25 комфорт 1012.8 1010.3
12 14.06 СВ 2 20 км слаб. дождь н/о +20.1 +18.1 88 +24 +24 комфорт 1012.4 1009.8 +27.0 0.0
13 14.06 С 1 9000 м слаб. дождь н/о +19.5 +18.0 91 +23 +23 комфорт 1011.9 1009.3
14 14.06 С 2 14 км слаб. дождь н/о +19.3 +17.5 89 +22 +22 комфорт 1010.8 1008.2
15 14.06 С 3 10 км слаб. дождь н/о +19.2 +17.4 89 +21 +21 комфорт 1009.7 1007.1
16 14.06 С 2 9000 м слаб. дождь н/о +18.6 +16.9 90 +20 +20 1009.0 1006.4
17 14.06 СВ 4 6000 м слаб. дождь н/о +18.6 +16.9 90 +20 +20 1007.9 1005.3
18 14.06 СВ 4 7000 м слаб. дождь н/о +18.4 +16.4 88 +19 +19 1007.3 1004.7 4
19 14.06 СВ 5 8000 м слаб. дождь н/о +18.7 +15.6 82 +19 +19 1006.3 1003.7
20 14.06 СВ 4 15 км слаб. дождь н/о +18.3 +15.0 81 +19 +19 1006.6 1004.0
21 14.06 С 3 4100 м дождь н/о +16.5 +15.9 96 +16 +16 1006.5 1003.9
22 14.06 С 3 9000 м слаб. дождь н/о +16.7 +15.7 94 +16 +16 1005.9 1003.3
23 14.06 СВ 5 20 км слаб. дождь н/о +18.5 +14.8 79 +19 +19 1004.4 1001.8
00 15.06 С 5 20 км слаб. дождь н/о +18.4 +14.9 80 +19 +19 1003.6 1001.0 +16.2 12
01 15.06 С 4 20 км слаб. дождь н/о +18.9 +14.8 77 +20 +20 1002.7 1000.2
02 15.06 С 4 20 км слаб. дождь н/о +19.0 +14.9 77 +20 +20 1002.0 999.5
03 15.06 С 4 6000 м дождь н/о +17.2 +15.7 91 +17 +17 999.3 996.7
04 15.06 СВ 3 5000 м дождь н/о +17.7 +15.9 89 +18 +18 998.3 995.8
05 15.06 С 4 4200 м дождь н/о +17.4 +16.3 93 +17 +17 997.4 994.9
06 15.06 В 3 6000 м дождь н/о +17.8 +17.2 96 +18 +18 996.8 994.3 21
07 15.06 ЮВ 3 4200 м слаб. дождь н/о +17.7 +17.1 96 +18 +18 995.0 992.5
08 15.06 ЮВ 2 11 км слаб. дождь н/о +18.1 +17.5 96 +19 +19 994.8 992.3
09 15.06 ЮВ 2 16 км слаб. дождь н/о +18.2 +17.4 95 +19 +19 994.7 992.2
10 15.06 В 2 20 км слаб. дождь н/о +18.1 +17.3 95 +19 +19 993.6 991.1
11 15.06 В 1 20 км в посл. час дождь н/о +18.0 +17.5 97 +19 +19 993.6 991.1
12 15.06 ЮВ 1 19 км слаб. дождь н/о +18.1 +17.8 98 +20 +20 993.3 990.8 +19.3 28
13 15.06 С 2 20 км слаб. дождь н/о +17.9 +17.7 99 +19 +19 992.4 989.9
14 15.06 Ю 1 20 км слаб. дождь н/о +18.1 +17.6 97 +19 +19 990.5 988.0
15 15.06 Ю 2 2000 м сильн. дождь н/о +18.6 +18.1 97 +20 +20 989.7 987.2
16 15.06 Ю 3 20 км в посл. час дождь н/о +20.0 +19.0 94 +24 +24 комфорт 988.8 986.3
17 15.06 ЮЗ 5 8000 м слаб. дождь н/о +20.8 +19.3 91 +25 +25 комфорт 988.0 985.5
18 15.06 ЮЗ 8 20 км в посл. час дождь н/о +20.4 +18.0 86 +23 +23 комфорт 988.3 985.8 11
19 15.06 ЮЗ 6 20 км н/о +20.3 +17.1 82 +23 +23 комфорт 988.2 985.7
20 15.06 ЮЗ 8 20 км н/о +20.6 +16.2 76 +23 +23 комфорт 989.0 986.5
21 15.06 ЮЗ 7 20 км н/о +20.5 +16.1 76 +23 +23 комфорт 989.8 987.3
22 15.06 ЮЗ 7 20 км н/о +21.5 +16.3 72 +25 +25 комфорт 990.6 988.1
23 15.06 ЮЗ 6 20 км н/о +23.0 +16.6 67 +28 +28 душно 990.9 988.4
00 16.06 ЮЗ 9 20 км н/о +23.6 +16.2 63 +27 +27 жарко 990.9 988.4 +17.9 11
01 16.06 ЮЗ 9 20 км н/о +25.1 +15.7 56 +28 +28 жарко 991.0 988.5
02 16.06 ЮЗ 7 20 км н/о +26.3 +15.4 51 +29 +29 жарко 991.3 988.9
03 16.06 ЮЗ 8 20 км н/о +26.5 +15.3 50 +29 +29 жарко 991.7 989.3
04 16.06 ЮЗ 9 20 км н/о +27.0 +15.1 48 +30 +30 душно 992.0 989.6
05 16.06 ЮЗ 8 20 км н/о +27.8 +14.8 45 +30 +30 жарко 992.3 989.9
06 16.06 ЮЗ 9 20 км н/о +27.7 +13.6 42 +30 +30 жарко 992.7 990.3
07 16.06 ЮЗ 8 20 км н/о +27.0 +13.7 44 +29 +29 жарко 993.6 991.2
08 16.06 ЮЗ 7 20 км н/о +26.0 +12.8 44 +28 +28 жарко 994.3 991.8
09 16.06 ЮЗ 7 20 км н/о +24.9 +13.2 48 +27 +27 жарко 995.8 993.3
10 16.06 ЮЗ 6 20 км н/о +24.0 +12.6 49 +26 +26 жарко 996.7 994.2
11 16.06 ЮЗ 6 20 км н/о +23.2 +12.2 50 +26 +26 жарко 998.2 995.7
12 16.06 ЮЗ 2 20 км н/о +22.0 +13.4 58 +25 +25 комфорт 1000.0 997.5 +28.2
13 16.06 ЮЗ 5 20 км н/о +21.5 +13.4 60 +24 +24 комфорт 1001.1 998.6
14 16.06 ЮЗ 4 20 км н/о +20.6 +14.0 66 +23 +23 комфорт 1001.7 999.2
15 16.06 ЮЗ 4 20 км н/о +20.2 +13.7 66 +22 +22 комфорт 1002.2 999.7
16 16.06 ЮЗ 4 20 км н/о +19.5 +13.2 67 +21 +21 комфорт 1002.5 1000.0
17 16.06 СЗ 2 20 км н/о +18.9 +14.2 74 +20 +20 1002.8 1000.3
18 16.06 С 2 20 км н/о +17.8 +14.1 79 +19 +19 1003.7 1001.1
19 16.06 СВ 2 20 км н/о +17.1 +14.0 82 +18 +18 1004.7 1002.1
20 16.06 СЗ 1 20 км н/о +16.4 +13.9 85 +18 +18 1005.5 1002.9
21 16.06 ЮВ 1 20 км н/о +16.8 +13.7 82 +18 +18 1006.8 1004.2
22 16.06 ЮВ 1 20 км н/о +18.9 +14.0 73 +22 +22 комфорт 1007.4 1004.8
23 16.06 В 1 20 км н/о +21.8 +13.5 59 +25 +25 комфорт 1007.9 1005.4
00 17.06 ЮВ 1 20 км н/о +23.6 +13.2 52 +26 +26 жарко 1007.8 1005.3 +16.2
01 17.06 Ю 2 20 км н/о +26.7 +13.5 44 +29 +29 жарко 1008.0 1005.5
02 17.06 Ю 3 20 км н/о +28.3 +11.8 36 +29 +29 жарко 1008.2 1005.7
03 17.06 З 4 20 км н/о +27.8 +13.4 41 +30 +30 жарко 1008.3 1005.8
04 17.06 ЮЗ 4 20 км н/о +27.8 +13.7 42 +30 +30 жарко 1008.6 1006.1
05 17.06 З 5 20 км н/о +27.4 +14.1 44 +30 +30 жарко 1008.9 1006.4
06 17.06 З 5 20 км н/о +25.9 +15.6 53 +29 +29 душно 1009.2 1006.7
07 17.06 З 4 20 км н/о +26.4 +16.1 53 +30 +30 душно 1008.9 1006.4
08 17.06 ЮЗ 4 20 км н/о +25.5 +15.5 54 +29 +29 душно 1009.3 1006.8
09 17.06 З 3 20 км н/о +24.1 +16.4 62 +28 +28 душно 1010.1 1007.6
10 17.06 СЗ 2 20 км н/о +23.6 +16.4 64 +27 +27 жарко 1011.2 1008.7
11 17.06 ЮЗ 1 20 км н/о +22.9 +16.2 66 +27 +27 душно 1011.7 1009.2
12 17.06 В 2 20 км н/о +21.4 +16.2 72 +25 +25 комфорт 1012.4 1009.9 +29.6
13 17.06 ЮВ 2 20 км н/о +20.7 +15.1 70 +24 +24 комфорт 1012.8 1010.2
14 17.06 ЮВ 2 20 км н/о +19.8 +14.6 72 +22 +22 комфорт 1013.2 1010.6
15 17.06 ЮВ 1 20 км н/о +19.6 +15.5 77 +23 +23 комфорт 1013.3 1010.7
16 17.06 ЮВ 2 20 км н/о +19.2 +14.9 76 +21 +21 комфорт 1013.1 1010.5
18 17.06 ЮВ 2 20 км н/о +18.4 +15.3 82 +20 +20 1013.2 1010.6
19 17.06 ЮВ 2 20 км н/о +18.0 +14.9 82 +19 +19 1013.5 1010.9
20 17.06 В 1 20 км н/о +18.1 +15.6 85 +19 +19 1013.5 1010.9
21 17.06 ЮВ 2 20 км н/о +19.1 +15.2 78 +21 +21 комфорт 1013.6 1011.0
22 17.06 ЮВ 1 20 км н/о +20.8 +15.1 70 +25 +25 комфорт 1013.8 1011.2
23 17.06 В 1 20 км н/о +23.3 +15.6 62 +28 +28 душно 1013.3 1010.8
00 18.06 Ю 3 20 км н/о +25.8 +15.2 52 +29 +29 душно 1012.6 1010.1 +17.9
01 18.06 Ю 2 20 км н/о +26.0 +14.5 49 +28 +28 жарко 1012.2 1009.7
02 18.06 ЮВ 3 20 км н/о +27.8 +14.1 43 +30 +30 жарко 1011.9 1009.4
03 18.06 З 4 20 км н/о +26.6 +16.0 52 +30 +30 душно 1011.5 1009.0
04 18.06 З 5 20 км н/о +26.3 +15.1 50 +29 +29 жарко 1011.2 1008.7
05 18.06 З 5 20 км н/о +26.2 +14.0 47 +28 +28 жарко 1010.9 1008.4
06 18.06 З 4 20 км н/о +25.4 +16.3 57 +29 +29 душно 1010.6 1008.1
07 18.06 З 5 20 км н/о +24.6 +16.9 62 +28 +28 душно 1010.8 1008.3
08 18.06 З 4 20 км н/о +24.6 +14.7 54 +27 +27 жарко 1010.6 1008.1
09 18.06 З 3 20 км н/о +23.8 +16.4 63 +27 +27 жарко 1010.7 1008.2
10 18.06 З 3 20 км н/о +23.2 +16.7 67 +28 +28 душно 1010.7 1008.2
11 18.06 З 2 20 км н/о +22.6 +15.7 65 +27 +27 душно 1011.0 1008.5
12 18.06 З 2 20 км н/о +22.4 +16.2 68 +27 +27 душно 1011.1 1008.6 +27.9
13 18.06 С 1 20 км н/о +21.3 +17.1 77 +25 +25 комфорт 1010.9 1008.4
14 18.06 С 2 20 км н/о +20.2 +17.0 82 +24 +24 комфорт 1010.8 1008.2
15 18.06 С 1 20 км н/о +19.6 +16.8 84 +23 +23 комфорт 1010.4 1007.8
16 18.06 Ю 2 20 км н/о +18.9 +16.5 86 +21 +21 комфорт 1010.0 1007.4
17 18.06 ЮВ 2 20 км н/о +18.3 +16.3 88 +20 +20 1009.6 1007.0
18 18.06 ЮВ 2 20 км н/о +18.1 +16.3 89 +19 +19 1009.6 1007.0
19 18.06 ЮВ 1 20 км н/о +17.9 +15.9 88 +19 +19 1009.7 1007.1
20 18.06 ЮВ 1 20 км н/о +17.8 +16.0 89 +19 +19 1009.8 1007.2
21 18.06 ЮВ 2 20 км н/о +18.7 +15.6 82 +20 +20 1009.8 1007.2
22 18.06 ЮВ 2 20 км н/о +20.6 +16.6 78 +25 +25 комфорт 1009.6 1007.1
23 18.06 ЮЗ 1 20 км н/о +23.4 +16.7 66 +28 +28 душно 1009.2 1006.7
00 19.06 З 2 20 км н/о +25.0 +16.7 60 +29 +29 душно 1008.8 1006.3 +17.7
01 19.06 Ю 2 20 км н/о +25.6 +16.2 56 +29 +29 душно 1008.2 1005.7
02 19.06 З 4 20 км н/о +27.0 +15.4 49 +30 +30 душно 1007.7 1005.2
03 19.06 ЮЗ 3 20 км н/о +27.7 +16.0 49 +31 +31 душно 1006.9 1004.4
04 19.06 З 4 20 км н/о +28.6 +18.1 53 +33 +33 очень
душно
1006.3 1003.8
05 19.06 З 4 20 км н/о +27.6 +18.3 57 +32 +32 очень
душно
1005.6 1003.1
06 19.06 З 6 15 км н/о +26.7 +18.6 61 +32 +32 очень
душно
1005.4 1002.9
07 19.06 З 5 12 км н/о +26.5 +19.1 64 +32 +32 очень
душно
1005.0 1002.5
08 19.06 З 5 13 км н/о +25.3 +19.0 68 +30 +30 душно 1004.8 1002.3
09 19.06 З 4 16 км н/о +24.7 +19.8 74 +30 +30 очень
душно
1004.9 1002.4
10 19.06 З 4 15 км н/о +24.1 +19.6 76 +29 +29 душно 1005.2 1002.7
11 19.06 З 4 14 км н/о +23.8 +20.2 80 +29 +29 душно 1005.5 1003.0
12 19.06 З 3 14 км н/о +23.7 +20.3 81 +29 +29 душно 1006.0 1003.5 +28.6
13 19.06 З 3 14 км н/о +23.6 +20.4 82 +29 +29 душно 1006.0 1003.5
14 19.06 З 2 14 км н/о +23.5 +20.3 82 +29 +29 душно 1005.6 1003.1
15 19.06 З 2 14 км н/о +23.4 +20.0 81 +30 +30 очень
душно
1005.2 1002.7
16 19.06 С 2 12 км н/о +23.0 +20.2 84 +30 +30 очень
душно
1004.6 1002.1
17 19.06 С 1 11 км н/о +23.0 +20.4 85 +30 +30 очень
душно
1004.2 1001.7
18 19.06 ЮВ 2 9000 м дымка н/о +22.1 +19.3 84 +28 +28 душно 1004.0 1001.5
19 19.06 В 1 9000 м дымка н/о +21.6 +19.2 86 +27 +27 душно 1004.1 1001.6
20 19.06 В 1 9000 м дымка н/о +21.6 +19.2 86 +27 +27 душно 1004.5 1002.0
21 19.06 Ю 2 10 км н/о +22.1 +18.9 82 +27 +27 душно 1004.6 1002.1
22 19.06 ЮВ 1 10 км н/о +22.9 +19.1 79 +29 +29 очень
душно
1004.9 1002.4
23 19.06 ЮВ 2 11 км н/о +25.3 +19.2 69 +30 +30 душно 1005.1 1002.6
00 20.06 ЮВ 4 14 км н/о +26.5 +18.6 62 +31 +31 душно 1005.4 1002.9 +21.5
01 20.06 ЮВ 4 11 км н/о +27.1 +18.7 60 +32 +32 очень
душно
1005.4 1002.9
02 20.06 В 4 14 км н/о +29.4 +19.1 54 +35 +35 очень
душно
1005.2 1002.7
03 20.06 В 4 13 км н/о +28.5 +18.6 55 +34 +34 очень
душно
1005.2 1002.7
04 20.06 В 2 14 км н/о +28.7 +18.8 55 +34 +34 очень
душно
1005.0 1002.5
05 20.06 З 5 15 км н/о +28.7 +19.4 57 +34 +34 очень
душно
1005.0 1002.5
06 20.06 З 4 16 км н/о +27.9 +19.2 59 +33 +33 очень
душно
1004.8 1002.3
07 20.06 З 4 15 км н/о +27.2 +19.0 61 +32 +32 очень
душно
1005.2 1002.7
08 20.06 З 4 12 км н/о +25.8 +19.5 68 +31 +31 очень
душно
1005.5 1003.0
09 20.06 З 3 9000 м дымка н/о +24.6 +20.5 78 +31 +31 очень
душно
1006.4 1003.9
10 20.06 СЗ 3 9000 м дымка н/о +24.4 +20.5 79 +30 +30 очень
душно
1006.9 1004.4
11 20.06 З 5 10 км н/о +24.1 +20.6 81 +30 +30 очень
душно
1007.6 1005.1
12 20.06 З 3 11 км н/о +24.0 +20.3 80 +30 +30 очень
душно
1008.1 1005.6 +30.2
13 20.06 ЮЗ 2 11 км н/о +24.2 +19.9 77 +30 +30 очень
душно
1008.7 1006.2
15 20.06 ЮВ 1 8000 м дымка н/о +22.9 +20.3 85 +30 +30 очень
душно
1009.0 1006.5
16 20.06 ЮВ 2 6000 м дымка н/о +22.0 +20.1 89 +28 +28 душно 1008.5 1006.0
17 20.06 ЮВ 1 6000 м дымка н/о +21.9 +20.0 89 +28 +28 душно 1008.4 1005.9
18 20.06 Ю 1 6000 м дымка н/о +21.6 +19.9 90 +27 +27 душно 1008.6 1006.1
19 20.06 ЮВ 2 6000 м дымка н/о +21.1 +19.2 89 +26 +26 душно 1009.0 1006.5
20 20.06 ЮВ 2 6000 м дымка н/о +20.8 +18.9 89 +26 +26 душно 1009.3 1006.8
21 20.06 ЮВ 1 6000 м дымка н/о +21.2 +19.1 88 +26 +26 душно 1009.9 1007.4

 

Местоположение метеостанции Мисима (Япония): широта 35.12 долгота 138.93 высота над уровнем моря 22 м.

В архиве по умолчанию представлена погода в Мисиме за последнюю неделю. Архивные данные за месяц целиком и за предыдущие месяцы, начиная с января 2011 года, Вы можете получить, выбрав интересующий диапазон дат из раскрывающегося списка и нажав кнопку "Ввод!".


*Определитесь, кто Вы:
робот инопланетянин человек

Внимание! Время в таблицах - всемирное. Для получения местного времени необходимо прибавить поправку, которая равна 9 ч.

Смотрите также архив погоды в соседних городах и на ближайших метеорологических станциях:

Погода в Аджиро (Япония) (17 км)
Погода на Фудзияме (Япония) (33 км)
Погода на Озере Кавагучи (Япония) (45 км)
Погода в Сидзуоке (Япония) (51 км)
Погода на Осиме (Япония) (58 км)
Погода в Иродзаки (Япония) (58 км)
Погода в Кофу (Япония) (70 км)
Погода в Иокогаме (Япония) (74 км)
Погода в Татеяме (Япония) (86 км)
Погода в Омаэдзаки (Япония) (88 км)

Пояснения к столбцам:

Ветер - указаны скорость ветра в м/с - средняя за 10 мин, порывы в срок и между сроками (в фигурных скобках) и направление, откуда дует ветер: С - северный, СВ - северо-восточный, В - восточный, ЮВ - юго-восточный, Ю - южный, ЮЗ - юго-западный, З - западный, СЗ - северо-западный.
Видимость - горизонтальная дальность видимости в метрах или километрах. При видимости от 1 до 10 км при отсутствии осадков обычно наблюдается дымка, при ухудшении видимости до 1 км и менее - туман. В сухую погоду видимость может ухудшаться дымом, пылью или мглою.
Явления - указаны атмосферные явления, наблюдавшиеся в срок или в последний час перед сроком; фигурными скобками обозначены явления, наблюдавшиеся между сроками (за 1-3 часа до срока); квадратными скобками обозначены град или гололедные отложения с указанием их диаметра в мм.
Облачность - указаны через наклонную черту общая и нижняя облачность в баллах и высота нижней границы облаков в метрах; квадратными скобками обозначены формы облаков: Ci - перистые, Cs - перисто-слоистые, Cc - перисто-кучевые, Ac - высококучевые, As - высокослоистые, Sc - слоисто-кучевые, Ns - слоисто-дождевые, Cu - кучевые, Cb - кучево-дождевые. Подробнее классификацию облаков см. в Атласе облаков (PDF).
T - Температура воздуха - температура, измеренная на высоте 2 м над землей.
Td - Температура точки росы - температура, при понижении до которой содержащийся в воздухе водяной пар достигнет насыщения.
f - Относительная влажность воздуха - влажноcть воздуха, измеренная на высоте 2 м над землей.
Te - Эффективная температура - температура, которую ощущает одетый по сезону человек в тени. Характеристика душности погоды. При расчете учитывается влияние влажности воздуха и скорости ветра на теплоощущения человека.
Tes - Эффективная температура на солнце - температура, которую ощущает человек, с поправкой на солнечный нагрев. Характеристика знойности погоды. Зависит от высоты солнца над горизонтом, облачности и скорости ветра. Ночью, в пасмурную погоду, а также при ветре 12 м/с и более поправка равна нулю.
P - Атмосферное давление - приведенное к уровню моря атмосферное давление.
Po - Атмосферное давление - измеренное на уровне метеостанции атмосферное давление.
Tmin - Минимальная температура - минимум температуры воздуха на высоте 2 м над землей.
Tmax - Максимальная температура - максимум температуры воздуха на высоте 2 м над землей.
R - Количество осадков - Количество выпавших осадков за период времени, мм. При наведении курсора мыши на число - период времени, за который выпало указанное количество осадков.
R24 - Количество осадков - Количество выпавших осадков за 24 часа, мм.
S - Снежный покров - Высота снежного покрова, см. При наведении курсора мыши на число - состояние снежного покрова и степень покрытия местности в баллах.